1536948000.7,52568,19.38,74354.5,4.87,4.31,4.27,0,*7D
1536948001.93,52569,19.44,74356.0,4.87,4.31,4.27,0,*7C
1536948003.17,52570,19.38,74352.5,4.87,4.27,4.31,0,*74
1536948004.37,52571,19.38,74354.0,4.87,4.27,4.27,0,*72
1536948005.57,52572,19.38,74354.5,4.89,4.33,4.31,0,*7D
1536948006.77,52573,19.38,74356.5,4.87,4.27,4.27,0,*70
1536948007.97,52574,19.38,74358.8,4.87,4.27,4.19,0,*7A
1536948009.15,52575,19.38,74352.3,4.89,4.33,4.33,0,*78
1536948010.38,52576,19.38,74354.5,4.89,4.31,4.31,0,*7B
1536948011.58,52577,19.38,74358.0,4.89,4.23,4.31,0,*79
1536948012.78,52578,19.38,74354.3,4.89,4.31,4.33,0,*77
1536948013.99,52579,19.38,74354.8,4.87,4.27,4.27,0,*7A
1536948015.15,52580,19.38,74354.0,4.89,4.19,4.19,0,*72
1536948016.33,52581,19.38,74358.0,4.89,4.23,4.23,0,*73
1536948017.53,52582,19.38,74356.0,4.89,4.31,4.33,0,*72
1536948018.73,52583,19.44,74358.8,4.89,4.31,4.23,0,*72
1536948019.9,52584,19.38,74354.0,4.89,4.19,4.19,0,*76
1536948021.09,52585,19.44,74358.3,4.91,4.23,4.19,0,*77
1536948022.26,52586,19.38,74356.5,4.89,4.23,4.27,0,*70
1536948023.43,52587,19.38,74352.5,4.89,4.19,4.23,0,*7C
1536948024.6,52588,19.38,74358.0,4.89,4.23,4.19,0,*73
1536948025.8,52589,19.44,74358.8,4.87,4.19,4.19,0,*75
1536948027.0,52590,19.44,74360.8,4.87,4.19,4.19,0,*7D
1536948028.19,52591,19.38,74356.8,4.87,4.19,4.19,0,*7C
1536948029.36,52592,19.44,74358.8,4.89,4.19,4.19,0,*71
1536948030.53,52593,19.38,74356.5,4.89,4.19,4.19,0,*70
1536948031.7,52594,19.38,74356.5,4.89,4.19,4.23,0,*7E
1536948032.9,52595,19.38,74358.8,4.89,4.23,4.31,0,*75
1536948034.1,52596,19.38,74352.5,4.89,4.31,4.23,0,*76
1536948035.27,52597,19.44,74358.3,4.89,4.19,4.19,0,*74
1536948036.47,52598,19.38,74354.0,4.87,4.15,4.15,0,*75
1536948037.64,52599,19.38,74354.3,4.89,4.19,4.23,0,*73
1536948038.84,52600,19.44,74358.3,4.87,4.19,4.19,0,*77
1536948040.04,52601,19.38,74356.0,4.87,4.19,4.19,0,*76
1536948041.27,52602,19.38,74354.3,4.87,4.31,4.19,0,*7F
1536948042.46,52603,19.38,74356.5,4.87,4.19,4.19,0,*74
1536948043.67,52604,19.38,74358.5,4.87,3.81,3.81,0,*73
1536948044.85,52605,19.38,74356.8,4.85,4.11,4.11,0,*70
1536948046.05,52606,19.38,74354.0,4.87,4.11,4.11,0,*71
1536948047.25,52607,19.38,74358.5,4.87,4.15,4.15,0,*70
1536948048.43,52608,19.38,74358.0,4.85,4.15,4.15,0,*7D
1536948049.63,52609,19.38,74356.3,4.87,4.19,4.19,0,*7E
1536948050.82,52610,19.38,74356.5,4.87,4.19,4.19,0,*76
1536948052.02,52611,19.38,74356.3,4.87,4.19,4.19,0,*77
1536948053.2,52612,19.38,74356.8,4.85,4.15,4.15,0,*76
1536948054.4,52613,19.38,74356.5,4.87,4.15,4.15,0,*75
1536948055.58,52614,19.38,74354.5,4.85,4.15,4.15,0,*70
1536948056.75,52615,19.38,74358.3,4.85,4.19,4.19,0,*71
1536948057.92,52616,19.38,74356.0,4.85,4.19,4.27,0,*7F
1536948059.09,52617,19.38,74352.5,4.89,4.23,4.23,0,*7F
1536948060.27,52618,19.38,74356.8,4.85,4.19,4.15,0,*70
1536948061.44,52619,19.38,74358.8,4.85,4.15,4.15,0,*7D
1536948062.61,52620,19.38,74352.5,4.85,4.19,4.19,0,*77
1536948063.81,52621,19.38,74356.5,4.87,4.19,4.19,0,*74
1536948064.98,52622,19.38,74356.3,4.85,4.19,4.19,0,*75
1536948066.16,52623,19.38,74354.8,4.85,4.15,4.15,0,*74
1536948067.34,52624,19.38,74356.5,4.85,4.15,4.15,0,*73
1536948068.54,52625,19.38,74358.0,4.87,4.27,4.27,0,*70
1536948069.71,52626,19.38,74354.3,4.85,4.19,4.19,0,*71
1536948070.88,52627,19.38,74354.8,4.85,4.15,4.15,0,*70
1536948072.06,52628,19.38,74352.8,4.85,4.19,4.15,0,*73
1536948073.24,52629,19.38,74354.5,4.85,4.15,4.15,0,*7E
1536948074.44,52630,19.38,74354.0,4.85,4.05,4.11,0,*73
1536948075.61,52631,19.38,74356.3,4.85,4.11,4.11,0,*77
1536948076.79,52632,19.38,74354.8,4.85,4.11,4.15,0,*70
1536948078.02,52633,19.38,74356.5,4.85,4.05,4.05,0,*75
1536948079.25,52634,19.38,74358.5,4.85,4.01,4.05,0,*76
1536948080.42,52635,19.38,74356.3,4.85,4.15,4.11,0,*77
1536948081.6,52636,19.38,74358.8,4.81,4.11,4.11,0,*74
1536948082.78,52637,19.38,74356.0,4.85,4.15,4.15,0,*71
1536948083.95,52638,19.38,74358.8,4.85,4.15,4.19,0,*72
1536948085.13,52639,19.38,74356.5,4.85,4.15,4.15,0,*7F
1536948086.3,52640,19.38,74356.0,4.85,4.19,4.19,0,*71
1536948087.47,52641,19.38,74354.3,4.81,4.11,4.11,0,*74
1536948088.65,52642,19.38,74352.5,4.85,4.15,4.15,0,*73
1536948089.83,52643,19.38,74356.8,4.81,4.11,4.07,0,*71
1536948091.01,52644,19.38,74354.8,4.81,4.07,4.07,0,*71
1536948092.2,52645,19.38,74356.3,4.81,3.89,3.89,0,*70
1536948093.42,52646,19.38,74354.3,4.81,3.97,4.01,0,*7B
1536948094.62,52647,19.38,74354.3,4.81,4.07,4.01,0,*74
1536948095.85,52648,19.38,74352.0,4.79,4.01,4.07,0,*7C
1536948097.05,52649,19.38,74352.3,4.81,4.07,3.97,0,*72
1536948098.3,52650,19.44,74356.8,4.79,3.97,3.97,0,*73
1536948099.55,52651,19.38,74354.3,4.79,4.01,3.97,0,*7A
1536948100.75,52652,19.38,74352.3,4.81,4.01,4.07,0,*70
1536948101.96,52653,19.38,74354.8,4.79,4.15,4.07,0,*73
1536948103.17,52654,19.38,74354.0,4.79,4.15,4.15,0,*77
1536948104.37,52655,19.38,74354.0,4.79,4.23,4.23,0,*76
1536948105.57,52656,19.38,74354.3,4.79,4.11,4.15,0,*71
1536948106.78,52657,19.38,74354.0,4.79,4.15,4.15,0,*74
1536948108.01,52658,19.38,74356.3,4.79,4.01,3.89,0,*7C
1536948109.26,52659,19.38,74354.8,4.79,3.97,4.01,0,*72
1536948110.49,52660,19.38,74354.5,4.79,4.01,4.07,0,*76
1536948111.7,52661,19.44,74356.5,4.79,4.07,4.07,0,*71
1536948112.9,52662,19.38,74354.8,4.79,4.07,4.11,0,*75
1536948114.11,52663,19.38,74352.0,4.79,3.85,3.89,0,*7F
1536948115.33,52664,19.38,74352.5,4.79,4.01,4.07,0,*72
1536948116.56,52665,19.38,74350.8,4.79,4.01,4.07,0,*73
1536948117.79,52666,19.38,74352.3,4.79,3.97,4.07,0,*78
1536948119.04,52667,19.38,74352.3,4.79,4.01,3.97,0,*7F
1536948120.22,52668,19.38,74354.5,4.77,3.85,3.85,0,*76
1536948121.45,52669,19.38,74354.3,4.79,3.97,3.89,0,*76
1536948122.7,52670,19.38,74352.3,4.79,3.97,3.97,0,*71
1536948123.88,52671,19.38,74350.5,4.77,3.93,3.93,0,*7E
1536948125.11,52672,19.44,74352.8,4.75,3.93,4.01,0,*73
1536948126.32,52673,19.38,74354.0,4.75,3.81,3.89,0,*76
1536948127.57,52674,19.38,74350.8,4.75,3.79,3.79,0,*79
1536948128.78,52675,19.38,74354.0,4.75,3.81,3.81,0,*78
1536948130.03,52676,19.38,74354.5,4.75,3.45,3.45,0,*7B
1536948131.29,52677,19.38,74348.0,4.75,3.79,3.79,0,*7A
1536948132.5,52678,19.38,74354.0,4.75,3.89,3.89,0,*75
1536948133.75,52679,19.38,74350.0,4.75,4.01,4.01,0,*74
1536948134.98,52680,19.38,74352.0,4.77,4.05,3.97,0,*7C
1536948136.19,52681,19.38,74348.8,4.75,3.93,3.81,0,*70
1536948137.4,52682,19.38,74350.0,4.75,3.93,3.89,0,*7B
1536948138.63,52683,19.38,74354.3,4.75,3.93,4.01,0,*7D
1536948139.87,52684,19.38,74348.8,4.75,4.01,4.01,0,*76
1536948141.06,52685,19.38,74352.8,4.73,3.93,3.89,0,*7A
1536948142.24,52686,19.38,74348.5,4.73,3.89,3.81,0,*7A
1536948143.45,52687,19.38,74352.0,4.75,3.89,3.93,0,*7E
1536948144.7,52688,19.38,74350.3,4.75,4.01,4.01,0,*7A
1536948145.92,52689,19.38,74352.8,4.73,4.01,4.01,0,*7D
1536948147.15,52690,19.38,74354.0,4.73,4.05,4.01,0,*71
1536948148.38,52691,19.38,74350.8,4.73,4.05,4.05,0,*74
1536948149.61,52692,19.38,74350.5,4.75,4.07,4.05,0,*73
1536948150.82,52693,19.38,74352.8,4.75,4.07,4.07,0,*70
1536948152.03,52694,19.38,74350.5,4.75,4.15,4.15,0,*77
1536948153.23,52695,19.38,74352.0,4.75,4.19,4.15,0,*7A
1536948154.41,52696,19.38,74352.0,4.77,4.07,4.07,0,*77
1536948155.66,52697,19.38,74350.5,4.75,4.01,4.01,0,*74
1536948156.91,52698,19.38,74354.8,4.75,4.01,4.05,0,*7F
1536948158.14,52699,19.38,74350.0,4.75,4.07,4.05,0,*78
1536948159.38,52700,19.38,74350.5,4.75,4.05,4.07,0,*79
1536948160.59,52701,19.38,74350.8,4.75,4.07,4.07,0,*7A
1536948161.82,52702,19.38,74348.0,4.75,4.07,4.05,0,*7B
1536948163.05,52703,19.38,74348.3,4.73,4.05,4.05,0,*7E
1536948164.28,52704,19.38,74350.3,4.73,4.01,4.05,0,*7D
1536948165.5,52705,19.38,74348.3,4.73,4.01,4.05,0,*7C
1536948166.76,52706,19.38,74348.3,4.75,4.01,4.05,0,*79
1536948167.98,52707,19.38,74350.8,4.73,4.01,4.05,0,*7E
1536948169.2,52708,19.38,74348.3,4.73,4.01,4.01,0,*75
1536948170.42,52709,19.38,74354.3,4.73,4.01,4.01,0,*74
1536948171.67,52710,19.38,74352.5,4.75,4.01,4.01,0,*7A
1536948172.9,52711,19.38,74352.3,4.75,3.93,4.01,0,*77
1536948174.15,52712,19.38,74354.8,4.75,4.01,4.01,0,*78
1536948175.4,52713,19.38,74350.0,4.75,4.05,4.01,0,*7D
1536948176.64,52714,19.38,74348.8,4.73,4.05,4.05,0,*78
1536948177.87,52715,19.38,74352.0,4.73,4.05,4.05,0,*79
1536948179.05,52716,19.38,74352.0,4.73,3.93,3.93,0,*7A
1536948180.27,52717,19.38,74350.8,4.73,4.01,4.01,0,*7B
1536948181.49,52718,19.38,74354.5,4.73,4.01,4.01,0,*74
1536948182.71,52719,19.38,74350.0,4.73,4.01,4.01,0,*75
1536948183.94,52720,19.38,74352.3,4.73,4.01,4.05,0,*7B
1536948185.15,52721,19.38,74348.3,4.73,4.05,4.07,0,*7C
1536948186.36,52722,19.38,74354.0,4.73,4.05,4.07,0,*7F
1536948187.59,52723,19.38,74348.0,4.73,4.05,4.05,0,*7C
1536948188.77,52724,19.38,74350.5,4.73,4.07,4.07,0,*7B
1536948190.0,52725,19.38,74348.3,4.73,4.05,4.05,0,*7A
1536948191.21,52726,19.38,74348.5,4.73,4.07,4.05,0,*7B
1536948192.44,52727,19.38,74348.3,4.73,4.05,4.05,0,*78
1536948193.62,52728,19.38,74352.0,4.73,4.07,4.07,0,*77
1536948194.85,52729,19.38,74348.8,4.73,4.05,4.05,0,*76
1536948196.06,52730,19.38,74350.3,4.73,4.07,4.05,0,*7C
1536948197.27,52731,19.38,74352.0,4.73,4.05,4.07,0,*7D
1536948198.45,52732,19.38,74352.0,4.73,4.07,4.07,0,*7C
1536948199.63,52733,19.38,74348.0,4.73,4.19,4.07,0,*72
1536948200.83,52734,19.38,74348.5,4.73,4.07,4.05,0,*78
1536948202.04,52735,19.38,74348.0,4.73,4.07,4.05,0,*79
1536948203.25,52736,19.38,74350.3,4.73,4.05,4.07,0,*7A
1536948204.45,52737,19.38,74350.3,4.73,4.05,4.07,0,*7B
1536948205.69,52738,19.38,74348.3,4.73,4.05,4.05,0,*76
1536948206.92,52739,19.38,74350.8,4.73,4.05,4.05,0,*77
1536948208.12,52740,19.38,74352.3,4.73,3.93,4.05,0,*71
1536948209.36,52741,19.38,74348.8,4.73,4.05,4.05,0,*78
1536948210.59,52742,19.38,74350.5,4.73,4.05,4.05,0,*7B
1536948211.82,52743,19.38,74350.3,4.73,4.05,4.05,0,*7A
1536948213.03,52744,19.38,74348.5,4.73,4.07,4.05,0,*7F
1536948214.23,52745,19.38,74350.0,4.75,4.07,4.07,0,*7A
1536948215.47,52746,19.38,74344.5,4.73,4.05,4.05,0,*7F
1536948216.65,52747,19.38,74344.0,4.73,4.07,4.07,0,*7E
1536948217.88,52748,19.38,74350.5,4.73,4.05,4.05,0,*71
1536948219.11,52749,19.38,74348.3,4.73,4.05,4.05,0,*70
1536948220.34,52750,19.38,74346.3,4.73,3.67,3.67,0,*78
1536948221.52,52751,19.38,74348.5,4.73,3.93,3.89,0,*72
1536948222.75,52752,19.38,74348.5,4.73,4.01,4.01,0,*7A
1536948223.97,52753,19.38,74350.3,4.73,4.01,4.05,0,*7F
1536948225.2,52754,19.38,74348.8,4.73,4.01,4.05,0,*78
1536948226.42,52755,19.38,74350.3,4.73,4.01,4.05,0,*79
1536948227.65,52756,19.44,74354.5,4.73,4.01,4.05,0,*7A
1536948228.87,52757,19.38,74348.8,4.73,4.01,4.01,0,*7F
1536948230.1,52758,19.38,74346.5,4.73,4.05,4.01,0,*74
1536948231.33,52759,19.38,74348.0,4.73,4.05,4.05,0,*71
1536948232.56,52760,19.38,74350.5,4.73,4.05,4.05,0,*7B
1536948233.74,52761,19.38,74348.3,4.73,4.07,4.07,0,*7A
1536948234.93,52762,19.38,74346.8,4.73,4.07,4.07,0,*79
1536948236.16,52763,19.38,74348.0,4.73,4.05,4.05,0,*78
1536948237.39,52764,19.38,74344.8,4.73,4.05,4.05,0,*7F
1536948238.6,52765,19.38,74348.3,4.73,4.07,4.05,0,*7C
1536948239.8,52766,19.38,74348.5,4.73,4.05,4.07,0,*7F
1536948240.98,52767,19.38,74346.3,4.73,4.15,4.07,0,*7F
1536948242.16,52768,19.38,74350.0,4.73,4.15,4.19,0,*7F
1536948243.33,52769,19.38,74348.3,4.73,4.19,4.19,0,*72
1536948244.51,52770,19.38,74348.5,4.73,4.15,4.15,0,*7A
1536948245.72,52771,19.38,74346.3,4.73,4.05,4.07,0,*79
1536948246.92,52772,19.38,74344.8,4.73,4.07,4.05,0,*7A
1536948248.13,52773,19.38,74344.5,4.73,4.05,4.07,0,*7B
1536948249.31,52774,19.38,74348.8,4.73,4.15,4.07,0,*7D
1536948250.52,52775,19.38,74348.8,4.73,4.07,4.05,0,*7D
1536948251.72,52776,19.38,74350.3,4.73,3.81,3.67,0,*74
1536948252.95,52777,19.38,74350.8,4.73,3.67,3.67,0,*7D
1536948254.17,52778,19.38,74348.0,4.73,3.79,3.67,0,*7D
1536948255.37,52779,19.38,74346.5,4.73,3.81,3.79,0,*74
1536948256.6,52780,19.38,74350.5,4.73,3.79,3.79,0,*75
1536948257.8,52781,19.38,74350.8,4.73,3.71,3.59,0,*7E
1536948259.03,52782,19.38,74344.0,4.73,3.71,3.67,0,*70
1536948260.26,52783,19.38,74348.5,4.73,3.71,3.71,0,*76
1536948261.49,52784,19.38,74348.5,4.73,3.67,3.67,0,*71
1536948262.72,52785,19.38,74352.8,4.73,3.71,3.79,0,*78
1536948263.94,52786,19.38,74348.8,4.73,3.71,3.67,0,*74
1536948265.17,52787,19.38,74350.8,4.73,3.79,3.71,0,*7A
1536948266.4,52788,19.38,74348.5,4.73,3.71,3.71,0,*7D
1536948267.63,52789,19.38,74350.0,4.73,3.79,3.71,0,*74
1536948268.86,52790,19.38,74350.8,4.73,3.71,3.79,0,*7C
1536948270.09,52791,19.38,74350.5,4.73,3.79,3.71,0,*7D
1536948271.32,52792,19.38,74348.3,4.73,3.79,3.71,0,*7E
1536948272.55,52793,19.38,74350.0,4.73,3.79,3.79,0,*77
1536948273.77,52794,19.38,74352.3,4.73,3.71,3.79,0,*78
1536948275.0,52795,19.38,74348.5,4.73,3.71,3.71,0,*71
1536948276.23,52796,19.38,74348.8,4.73,3.79,3.79,0,*72
1536948277.46,52797,19.38,74352.3,4.73,3.79,3.71,0,*7B
1536948278.69,52798,19.38,74350.8,4.73,3.71,3.71,0,*7C
1536948279.92,52799,19.38,74352.8,4.73,3.71,3.71,0,*7D
1536948281.15,52800,19.38,74352.5,4.73,3.79,3.79,0,*72
1536948282.37,52801,19.38,74354.3,4.73,3.71,3.79,0,*7B
1536948283.61,52802,19.38,74354.3,4.73,3.67,3.71,0,*77
1536948284.8,52803,19.38,74354.8,4.73,3.59,3.67,0,*7C
1536948285.98,52804,19.38,74354.8,4.73,3.59,3.59,0,*76
1536948287.14,52805,19.38,74348.5,4.73,3.55,3.55,0,*77
1536948288.31,52806,19.38,74352.5,4.73,3.55,3.55,0,*74
1536948289.48,52807,19.38,74352.3,4.73,3.55,3.55,0,*75
1536948290.65,52808,19.38,74350.8,4.73,3.59,3.55,0,*76
1536948291.88,52809,19.38,74350.8,4.73,3.67,3.67,0,*7B
1536948293.11,52810,19.38,74350.3,4.73,3.67,3.67,0,*73
1536948294.34,52811,19.38,74354.0,4.73,3.49,3.49,0,*72
1536948295.53,52812,19.38,74354.0,4.73,3.49,3.55,0,*7C
1536948296.73,52813,19.38,74354.8,4.73,3.55,3.49,0,*7D
1536948297.93,52814,19.38,74348.3,4.73,3.55,3.49,0,*7A
1536948299.1,52815,19.38,74348.8,4.73,3.55,3.55,0,*76
1536948300.29,52816,19.38,74348.0,4.73,3.49,3.55,0,*78
1536948301.5,52817,19.38,74354.0,4.69,3.67,3.63,0,*7B
1536948302.73,52818,19.38,74348.3,4.73,3.67,3.67,0,*7B
1536948303.96,52819,19.38,74352.0,4.73,3.71,3.67,0,*7D
1536948305.18,52820,19.38,74354.5,4.73,3.71,3.79,0,*78
1536948306.41,52821,19.38,74352.5,4.73,3.71,3.71,0,*71
1536948307.58,52822,19.38,74352.3,4.69,3.63,3.55,0,*7C
1536948308.76,52823,19.38,74354.8,4.69,3.63,3.55,0,*7D
1536948309.96,52824,19.38,74354.5,4.69,3.67,3.63,0,*7B
1536948311.19,52825,19.38,74350.8,4.73,3.79,3.71,0,*7D
1536948312.42,52826,19.38,74348.5,4.73,3.79,3.71,0,*7E
1536948313.65,52827,19.38,74354.5,4.73,3.71,3.79,0,*7F
1536948314.87,52828,19.38,74352.0,4.73,3.71,3.67,0,*7F
1536948316.1,52829,19.38,74352.3,4.73,3.71,3.71,0,*79
1536948317.33,52830,19.38,74352.3,4.73,3.79,3.71,0,*79
1536948318.56,52831,19.38,74354.8,4.73,3.79,3.71,0,*78
1536948319.76,52832,19.38,74352.5,4.73,3.81,3.79,0,*74
1536948320.95,52833,19.38,74354.5,4.73,3.89,3.81,0,*7A
1536948322.18,52834,19.38,74352.5,4.69,3.79,3.75,0,*72
1536948323.41,52835,19.38,74354.8,4.69,3.75,3.67,0,*7C
1536948324.64,52836,19.38,74352.0,4.73,3.71,3.71,0,*77
1536948325.87,52837,19.38,74352.0,4.73,3.71,3.71,0,*76
1536948327.1,52838,19.38,74354.5,4.73,3.79,3.71,0,*71
1536948328.33,52839,19.38,74352.5,4.73,3.79,3.71,0,*70
1536948329.56,52840,19.38,74354.3,4.73,3.67,3.67,0,*76
1536948330.79,52841,19.38,74350.3,4.73,3.67,3.67,0,*77
1536948332.01,52842,19.38,74350.8,4.73,3.71,3.67,0,*73
1536948333.24,52843,19.38,74356.0,4.73,3.71,3.67,0,*72
1536948334.47,52844,19.38,74354.8,4.73,3.71,3.71,0,*72
1536948335.64,52845,19.38,74352.0,4.73,3.59,3.59,0,*73
1536948336.82,52846,19.38,74354.3,4.73,3.59,3.59,0,*70
1536948338.05,52847,19.38,74354.0,4.73,3.67,3.67,0,*71
1536948339.21,52848,19.38,74350.3,4.69,3.55,3.63,0,*70
1536948340.41,52849,19.38,74350.8,4.73,3.55,3.49,0,*72
1536948341.58,52850,19.38,74352.5,4.73,3.55,3.55,0,*77
1536948342.81,52851,19.38,74352.3,4.73,3.71,3.67,0,*71
1536948344.02,52852,19.38,74352.3,4.73,3.79,3.81,0,*72
1536948345.25,52853,19.38,74356.3,4.69,3.75,3.75,0,*7F
1536948346.42,52854,19.38,74352.3,4.69,3.63,3.55,0,*7D
1536948347.59,52855,19.38,74352.0,4.69,3.63,3.55,0,*7C
1536948348.76,52856,19.38,74350.8,4.69,3.55,3.55,0,*7A
1536948349.94,52857,19.38,74354.0,4.69,3.63,3.55,0,*7E
1536948351.19,52858,19.38,74352.3,4.67,3.41,3.49,0,*72
1536948352.39,52859,19.38,74352.3,4.69,3.55,3.53,0,*73
1536948353.64,52860,19.38,74352.0,4.67,3.53,3.49,0,*7A
1536948354.81,52861,19.38,74352.0,4.69,3.63,3.55,0,*7B
1536948355.98,52862,19.38,74348.3,4.69,3.63,3.63,0,*7D
1536948357.21,52863,19.38,74348.5,4.67,3.59,3.53,0,*78
1536948358.44,52864,19.38,74352.3,4.69,3.45,3.45,0,*7B
1536948359.69,52865,19.38,74352.3,4.67,3.49,3.41,0,*7C
1536948360.89,52866,19.38,74354.0,4.67,3.63,3.59,0,*7E
1536948362.12,52867,19.38,74348.3,4.69,3.67,3.67,0,*78
1536948363.38,52868,19.38,74352.5,4.67,3.75,3.75,0,*79
1536948364.56,52869,19.38,74352.8,4.69,3.85,3.85,0,*76
1536948365.79,52870,19.38,74354.3,4.69,3.79,3.75,0,*72
1536948367.05,52871,19.38,74352.3,4.67,3.75,3.79,0,*7D
1536948368.25,52872,19.38,74348.5,4.67,3.81,3.81,0,*72
1536948369.49,52873,19.38,74354.8,4.69,3.75,3.75,0,*7D
1536948370.69,52874,19.38,74354.8,4.69,3.67,3.63,0,*7E
1536948371.92,52875,19.38,74354.8,4.69,3.75,3.75,0,*7B
1536948373.13,52876,19.38,74348.8,4.69,3.85,3.79,0,*7B
1536948374.3,52877,19.38,74352.3,4.69,3.89,3.85,0,*75
1536948375.56,52878,19.38,74352.5,4.67,3.75,3.75,0,*78
1536948376.8,52879,19.38,74350.5,4.69,3.75,3.75,0,*77
1536948378.03,52880,19.38,74350.8,4.69,3.67,3.67,0,*71
1536948379.26,52881,19.38,74354.5,4.69,3.79,3.75,0,*7C
1536948380.46,52882,19.38,74350.8,4.69,3.29,3.23,0,*79
1536948381.66,52883,19.38,74352.5,4.69,3.63,3.75,0,*75
1536948382.89,52884,19.38,74352.0,4.67,3.75,3.85,0,*74
1536948384.15,52885,19.38,74352.3,4.67,3.75,3.75,0,*7A
1536948385.35,52886,19.38,74354.3,4.69,3.85,3.79,0,*74
1536948386.59,52887,19.38,74354.5,4.69,3.75,3.75,0,*76
1536948387.81,52888,19.38,74350.8,4.73,3.71,3.79,0,*7A
1536948389.04,52889,19.38,74352.3,4.69,3.79,3.75,0,*74
1536948390.27,52890,19.38,74352.3,4.69,3.79,3.79,0,*70
1536948391.5,52891,19.38,74354.8,4.69,3.75,3.79,0,*7D
1536948392.7,52892,19.38,74352.0,4.69,3.85,3.79,0,*71
1536948393.88,52893,19.38,74354.5,4.69,3.85,3.85,0,*73
1536948395.05,52894,19.38,74350.8,4.69,3.85,3.85,0,*74
1536948396.23,52895,19.38,74348.5,4.69,3.85,3.89,0,*79
1536948397.41,52896,19.38,74348.5,4.73,3.89,3.93,0,*76
1536948398.59,52897,19.38,74352.5,4.73,3.93,3.93,0,*7C
1536948399.82,52898,19.38,74350.0,4.73,4.01,4.01,0,*73
1536948401.0,52899,19.38,74350.5,4.73,3.93,3.89,0,*79
1536948402.2,52900,19.38,74354.3,4.73,4.01,3.89,0,*74
1536948403.38,52901,19.38,74348.0,4.73,3.89,3.89,0,*72
1536948404.56,52902,19.38,74352.8,4.73,3.81,3.81,0,*71
1536948405.74,52903,19.38,74350.8,4.73,3.81,3.81,0,*70
1536948406.97,52904,19.38,74352.0,4.73,3.79,3.79,0,*77
1536948408.17,52905,19.38,74354.5,4.73,3.81,3.71,0,*79
1536948409.4,52906,19.38,74354.0,4.73,3.71,3.79,0,*7D
1536948410.63,52907,19.38,74354.0,4.73,3.79,3.71,0,*7C
1536948411.86,52908,19.38,74354.0,4.73,3.71,3.71,0,*7B
1536948413.09,52909,19.38,74350.3,4.73,3.71,3.67,0,*7D
1536948414.31,52910,19.38,74352.8,4.73,3.71,3.67,0,*75
1536948415.54,52911,19.38,74354.8,4.73,3.79,3.79,0,*73
1536948416.74,52912,19.38,74354.8,4.73,3.81,3.79,0,*77
1536948417.97,52913,19.38,74348.3,4.73,3.79,3.71,0,*79
1536948419.2,52914,19.38,74354.3,4.73,3.79,3.79,0,*76
1536948420.43,52915,19.38,74352.0,4.73,3.79,3.71,0,*7F
1536948421.66,52916,19.38,74348.5,4.73,3.71,3.71,0,*74
1536948422.88,52917,19.38,74352.3,4.73,3.79,3.79,0,*75
1536948424.09,52918,19.38,74352.3,4.73,3.79,3.81,0,*7D
1536948425.32,52919,19.38,74352.0,4.73,3.79,3.79,0,*7B
1536948426.5,52920,19.38,74352.8,4.73,3.81,3.81,0,*71
1536948427.72,52921,19.38,74350.0,4.73,3.79,3.79,0,*70
1536948428.93,52922,19.38,74350.3,4.73,3.79,3.81,0,*74
1536948430.11,52923,19.38,74352.8,4.73,3.81,3.89,0,*7A
1536948431.29,52924,19.38,74352.0,4.73,3.81,3.81,0,*75
1536948432.47,52925,19.38,74354.5,4.73,3.81,3.89,0,*7C
1536948433.67,52926,19.38,74350.3,4.73,3.81,3.71,0,*78
1536948434.88,52927,19.38,74350.8,4.73,3.81,3.71,0,*79
1536948436.06,52928,19.38,74350.8,4.73,3.89,3.81,0,*71
1536948437.24,52929,19.38,74354.3,4.73,3.89,3.89,0,*78
1536948438.43,52930,19.38,74354.0,4.73,3.89,3.81,0,*78
1536948439.6,52931,19.38,74348.0,4.73,3.81,3.81,0,*71
1536948440.78,52932,19.38,74350.0,4.73,3.81,3.89,0,*7A
1536948441.96,52933,19.38,74348.5,4.73,3.81,3.89,0,*7B
1536948443.15,52934,19.38,74350.5,4.73,3.89,3.81,0,*7C
1536948444.38,52935,19.38,74354.3,4.73,3.71,3.71,0,*75
1536948445.61,52936,19.38,74350.3,4.73,3.71,3.71,0,*76
1536948446.83,52937,19.38,74348.3,4.73,3.79,3.79,0,*77
1536948448.03,52938,19.38,74350.3,4.73,3.81,3.79,0,*7F
1536948449.24,52939,19.38,74352.8,4.73,3.81,3.71,0,*76
1536948450.49,52940,19.38,74348.3,4.75,3.79,3.79,0,*71
1536948451.72,52941,19.38,74350.5,4.75,3.81,3.71,0,*7F
1536948452.97,52942,19.38,74352.3,4.75,3.79,3.79,0,*73
1536948454.23,52943,19.38,74350.0,4.75,3.79,3.79,0,*72
1536948455.48,52944,19.38,74348.8,4.75,3.79,3.71,0,*7D
1536948456.71,52945,19.38,74350.3,4.75,3.59,3.67,0,*79
1536948457.96,52946,19.38,74348.3,4.75,3.71,3.67,0,*70
1536948459.22,52947,19.38,74350.3,4.75,3.79,3.67,0,*79
1536948460.47,52948,19.38,74352.0,4.75,3.79,3.79,0,*79
1536948461.68,52949,19.38,74348.5,4.75,3.81,3.81,0,*78
1536948462.86,52950,19.38,74350.3,4.77,3.85,3.81,0,*76
1536948464.04,52951,19.38,74352.5,4.77,3.85,3.85,0,*73
1536948465.24,52952,19.38,74350.8,4.75,3.89,3.81,0,*7A
1536948466.45,52953,19.38,74348.5,4.75,3.81,3.89,0,*7B
1536948467.66,52954,19.38,74348.3,4.75,3.89,3.81,0,*7C
1536948468.87,52955,19.38,74350.0,4.75,3.93,3.89,0,*7E
1536948470.08,52956,19.38,74348.5,4.75,3.89,3.89,0,*76
1536948471.29,52957,19.38,74350.8,4.75,3.81,3.89,0,*7F
1536948472.5,52958,19.38,74350.3,4.75,3.89,3.89,0,*78
1536948473.71,52959,19.38,74352.5,4.75,3.89,3.81,0,*71
1536948474.93,52960,19.38,74348.3,4.75,3.81,3.79,0,*74
1536948476.12,52961,19.38,74350.3,4.77,3.85,3.81,0,*74
1536948477.37,52962,19.38,74350.3,4.75,3.79,3.71,0,*79
1536948478.63,52963,19.38,74352.5,4.75,3.71,3.71,0,*70
1536948479.88,52964,19.38,74348.0,4.75,3.67,3.67,0,*77
1536948481.12,52965,19.38,74348.0,4.75,3.67,3.59,0,*7B
1536948482.35,52966,19.38,74352.0,4.75,3.67,3.59,0,*78
1536948483.58,52967,19.38,74350.5,4.75,3.71,3.59,0,*7E
1536948484.83,52968,19.38,74352.3,4.75,3.79,3.67,0,*74
1536948486.08,52969,19.38,74344.5,4.75,3.79,3.79,0,*7A
1536948487.34,52970,19.38,74350.8,4.75,3.79,3.71,0,*7A
1536948488.6,52971,19.38,74348.0,4.75,3.71,3.71,0,*73
1536948489.85,52972,19.38,74350.5,4.75,3.79,3.71,0,*78
1536948491.11,52973,19.38,74346.3,4.75,3.71,3.71,0,*71
1536948492.37,52974,19.38,74346.8,4.75,3.71,3.71,0,*76
1536948493.62,52975,19.38,74348.0,4.75,3.71,3.71,0,*77
1536948494.88,52976,19.38,74348.5,4.75,3.79,3.79,0,*74
1536948496.13,52977,19.38,74348.3,4.75,3.79,3.71,0,*7D
1536948497.39,52978,19.38,74346.3,4.75,3.79,3.71,0,*72
1536948498.59,52979,19.38,74348.3,4.77,3.81,3.75,0,*72
1536948499.85,52980,19.38,74350.8,4.75,3.79,3.71,0,*75
1536948501.09,52981,19.38,74350.5,4.77,3.75,3.75,0,*7E
1536948502.31,52982,19.38,74346.0,4.75,3.59,3.67,0,*72
1536948503.57,52983,19.38,74344.5,4.75,3.79,3.67,0,*71
1536948504.82,52984,19.38,74348.3,4.75,3.79,3.79,0,*79
1536948506.03,52985,19.38,74346.5,4.77,3.81,3.75,0,*71
1536948507.24,52986,19.38,74348.8,4.77,3.85,3.75,0,*76
1536948508.49,52987,19.38,74348.0,4.75,3.79,3.79,0,*7A
1536948509.7,52988,19.38,74344.3,4.77,3.81,3.75,0,*7C
1536948510.95,52989,19.38,74350.3,4.75,3.71,3.67,0,*73
1536948512.2,52990,19.38,74348.5,4.75,3.71,3.67,0,*7B
1536948513.46,52991,19.38,74344.5,4.75,3.71,3.71,0,*7D
1536948514.71,52992,19.38,74350.5,4.75,3.71,3.67,0,*79
1536948515.97,52993,19.38,74344.3,4.75,3.79,3.67,0,*70
1536948517.22,52994,19.38,74346.5,4.75,3.71,3.71,0,*78
1536948518.48,52995,19.38,74350.3,4.75,3.79,3.71,0,*71
1536948519.74,52996,19.38,74348.5,4.75,3.79,3.71,0,*72
1536948520.99,52997,19.38,74350.5,4.75,3.71,3.71,0,*7B
1536948522.25,52998,19.38,74344.0,4.75,3.71,3.71,0,*74
1536948523.51,52999,19.38,74344.5,4.75,3.71,3.71,0,*75
1536948524.76,53000,19.38,74346.3,4.75,3.67,3.67,0,*7D
1536948526.02,53001,19.38,74348.0,4.75,3.67,3.67,0,*7C
1536948527.28,53002,19.38,74350.0,4.75,3.67,3.67,0,*7F
1536948528.53,53003,19.38,74346.3,4.75,3.79,3.79,0,*7E
1536948529.79,53004,19.38,74346.5,4.75,3.79,3.79,0,*79